EW9826 Weather Reports


time (UTC)temp
C
wind
direction
speed
KPH
gust
KPH
rain 1hr
cm
rain 24hr
cm
rain mn
cm
humidity
%
barometer
mb
20260506175505 13 56 3.2 11.3 0.00 0.00 0.00 59 1010.6
20260506174006 13 60 4.8 8.0 0.00 0.00 0.00 55 1010.5
20260506173506 13 61 3.2 11.3 0.00 0.00 0.00 55 1010.4
20260506170005 13 53 6.4 12.9 0.00 0.00 0.00 52 1010.1
20260506165505 13 13 4.8 11.3 0.00 0.00 0.00 50 1010.1
20260506165006 13 344 4.8 11.3 0.00 0.00 0.00 50 1010.1
20260506153505 14 93 4.8 12.9 0.00 0.00 0.00 50 1010.0
20260506153005 15 95 3.2 9.7 0.00 0.00 0.00 48 1009.9
20260506152506 15 102 9.7 20.9 0.00 0.00 0.00 46 1009.9
20260506152006 15 82 3.2 11.3 0.00 0.00 0.00 45 1009.9
20260506151505 15 13 9.7 14.5 0.00 0.00 0.00 45 1009.9
20260506151006 15 16 8.0 20.9 0.00 0.00 0.00 45 1009.9
20260506145506 15 64 8.0 19.3 0.00 0.00 0.00 45 1009.7
20260506145006 15 82 8.0 20.9 0.00 0.00 0.00 44 1009.7
20260506144505 15 32 14.5 20.9 0.00 0.00 0.00 44 1009.7
20260506134005 15 56 9.7 20.9 0.00 0.00 0.00 47 1009.7
20260506133505 15 35 8.0 19.3 0.00 0.00 0.00 47 1009.6
20260506133005 15 15 8.0 14.5 0.00 0.00 0.00 48 1009.6
20260506132505 15 72 8.0 19.3 0.00 0.00 0.00 47 1009.6
20260506132005 15 64 9.7 19.3 0.00 0.00 0.00 46 1009.6
20260506131505 15 43 6.4 16.1 0.00 0.00 0.00 46 1009.6
20260506131005 15 71 8.0 19.3 0.00 0.00 0.00 47 1009.6
20260506130005 15 20 11.3 25.7 0.00 0.00 0.00 47 1009.6
20260506125504 15 65 9.7 16.1 0.00 0.00 0.00 47 1009.6
20260506124006 14 38 9.7 19.3 0.00 0.00 0.00 48 1009.6
20260506123505 14 7 11.3 19.3 0.00 0.00 0.00 49 1009.5
20260506123005 14 56 8.0 20.9 0.00 0.00 0.00 49 1009.4
20260506122504 14 15 9.7 16.1 0.00 0.00 0.00 50 1009.5
20260506122005 14 17 4.8 14.5 0.00 0.00 0.00 53 1009.5
20260506115004 15 354 9.7 24.1 0.00 0.00 0.00 53 1009.3
20260506114505 14 74 6.4 12.9 0.00 0.00 0.00 53 1009.4
20260506114005 14 13 8.0 19.3 0.00 0.00 0.00 50 1009.5
20260506113505 14 19 8.0 16.1 0.00 0.00 0.00 51 1009.5
20260506110005 13 347 8.0 12.9 0.00 0.00 0.00 64 1009.5
20260506105504 13 8 11.3 20.9 0.00 0.00 0.00 64 1009.5
20260506095004 13 0 8.0 22.5 0.00 0.00 0.00 64 1009.2
20260506094504 13 27 6.4 16.1 0.00 0.00 0.00 66 1009.1
20260506094004 13 35 8.0 32.2 0.00 0.00 0.00 66 1009.1
20260506093505 13 47 8.0 24.1 0.00 0.00 0.00 66 1009.1
20260506093005 13 354 9.7 19.3 0.00 0.00 0.00 66 1009.1
20260506092004 13 18 9.7 22.5 0.00 0.00 0.00 67 1009.1
20260506091504 13 32 9.7 20.9 0.00 0.00 0.00 66 1009.1
20260506091004 13 20 9.7 24.1 0.00 0.00 0.00 67 1009.0
20260506090004 13 61 8.0 22.5 0.00 0.00 0.00 68 1009.1
20260506085504 13 59 9.7 19.3 0.00 0.00 0.00 68 1009.0
20260506085005 13 63 11.3 16.1 0.00 0.00 0.00 69 1009.0
20260506084504 12 19 8.0 16.1 0.00 0.00 0.00 72 1009.0
20260506084009 12 6 11.3 19.3 0.00 0.00 0.00 72 1009.0
20260506083010 12 17 6.4 16.1 0.00 0.00 0.00 74 1009.0
20260506082508 12 16 8.0 19.3 0.00 0.00 0.00 74 1009.0
20260506073508 12 25 8.0 19.3 0.00 0.00 0.00 76 1009.0
20260506072508 12 0 8.0 16.1 0.00 0.00 0.00 76 1009.0
20260506062008 11 1 9.7 19.3 0.00 0.00 0.00 80 1008.6
20260506061508 11 11 8.0 16.1 0.00 0.00 0.00 81 1008.6
20260506045007 10 4 9.7 19.3 0.00 0.00 0.00 83 1008.6
20260506044507 10 353 11.3 16.1 0.00 0.00 0.00 83 1008.6
20260506041508 10 5 6.4 14.5 0.00 0.00 0.00 83 1008.6
20260506041008 10 355 6.4 19.3 0.00 0.00 0.00 82 1008.6
20260506035008 9 4 6.4 14.5 0.00 0.00 0.00 82 1008.7
20260506033507 9 2 8.0 16.1 0.00 0.00 0.00 82 1008.9
20260506033008 9 355 9.7 14.5 0.00 0.00 0.00 83 1008.9
20260506032507 9 358 8.0 14.5 0.00 0.00 0.00 83 1008.9
20260506031008 9 339 8.0 14.5 0.00 0.00 0.00 83 1009.0
20260506025007 9 13 6.4 11.3 0.00 0.00 0.00 84 1009.1
20260506024508 9 355 6.4 11.3 0.00 0.00 0.00 84 1009.1
20260506024008 9 11 4.8 12.9 0.00 0.00 0.00 84 1009.1
20260506023507 9 1 4.8 11.3 0.00 0.00 0.00 84 1009.1
20260506023008 9 3 8.0 12.9 0.00 0.00 0.00 84 1009.1
20260506015507 8 1 9.7 16.1 0.00 0.00 0.00 84 1009.2
20260506015007 8 0 9.7 16.1 0.00 0.00 0.00 84 1009.3
20260506014507 8 7 8.0 19.3 0.00 0.00 0.00 84 1009.2
20260506014007 8 350 8.0 19.3 0.00 0.00 0.00 84 1009.2
20260506013507 8 355 8.0 16.1 0.00 0.00 0.00 84 1009.3
20260506012007 8 15 8.0 19.3 0.00 0.00 0.00 84 1009.3
20260506011507 8 11 6.4 12.9 0.00 0.00 0.00 84 1009.3
20260506011007 8 0 8.0 14.5 0.00 0.00 0.00 84 1009.3
20260506010007 8 3 9.7 16.1 0.00 0.00 0.00 84 1009.5
20260506005506 8 0 6.4 14.5 0.00 0.00 0.00 84 1009.6
20260506005007 8 13 4.8 12.9 0.00 0.00 0.00 84 1009.6
20260506003506 8 4 4.8 14.5 0.00 0.00 0.00 83 1009.6
20260506003008 8 328 8.0 19.3 0.00 0.00 0.00 83 1009.7
20260506002508 8 352 11.3 19.3 0.00 0.00 0.00 83 1009.7
20260505235007 8 357 8.0 16.1 0.00 0.00 0.00 81 1010.0
20260505234506 8 351 6.4 14.5 0.00 0.00 0.00 81 1010.0
20260505234007 8 358 8.0 14.5 0.00 0.00 0.00 81 1010.1
20260505233506 8 356 4.8 14.5 0.00 0.00 0.00 81 1010.1
20260505232507 8 355 6.4 12.9 0.00 0.00 0.00 80 1010.1
20260505232007 8 3 8.0 16.1 0.00 0.00 0.00 80 1010.1
20260505231506 8 358 8.0 14.5 0.00 0.00 0.00 79 1010.1
20260505231007 9 3 8.0 27.4 0.00 0.00 0.00 79 1010.2
20260505230007 9 1 8.0 16.1 0.00 0.00 0.00 78 1010.2
20260505225507 9 2 8.0 19.3 0.00 0.00 0.00 78 1010.3
20260505225007 9 3 6.4 12.9 0.00 0.00 0.00 78 1010.3
20260505221507 9 9 8.0 19.3 0.00 0.00 0.00 78 1010.5
20260505221007 9 4 9.7 19.3 0.00 0.00 0.00 78 1010.5
20260505220007 9 347 9.7 14.5 0.00 0.00 0.00 78 1010.6
20260505215506 9 7 9.7 12.9 0.00 0.00 0.00 78 1010.6
20260505215007 9 3 8.0 14.5 0.00 0.00 0.00 78 1010.6
20260505214507 9 0 9.7 14.5 0.00 0.00 0.00 78 1010.6
20260505214006 9 0 6.4 14.5 0.00 0.00 0.00 78 1010.6
20260505213507 9 353 8.0 12.9 0.00 0.00 0.00 78 1010.6
20260505213006 9 355 8.0 14.5 0.00 0.00 0.00 78 1010.7
20260505212506 9 355 6.4 12.9 0.00 0.00 0.00 78 1010.7
20260505212007 9 355 4.8 11.3 0.00 0.00 0.00 78 1010.7
20260505204506 10 359 6.4 12.9 0.00 0.00 0.00 78 1010.9
20260505204006 10 3 4.8 14.5 0.00 0.00 0.00 77 1011.0
20260505203506 10 355 8.0 12.9 0.00 0.00 0.00 77 1010.9
20260505203006 10 3 4.8 11.3 0.00 0.00 0.00 77 1010.9
20260505194506 10 35 4.8 9.7 0.00 0.00 0.00 77 1010.6
20260505194006 10 359 4.8 11.3 0.00 0.00 0.00 77 1010.6
20260505193007 10 315 6.4 12.9 0.00 0.00 0.00 76 1010.6
20260505192506 10 13 8.0 12.9 0.00 0.00 0.00 76 1010.5
20260505191506 11 10 4.8 9.7 0.00 0.00 0.00 75 1010.2
20260505191006 11 9 6.4 14.5 0.00 0.00 0.00 74 1010.2
20260505190006 11 3 8.0 19.3 0.00 0.00 0.00 74 1010.1
20260505185506 11 352 8.0 16.1 0.00 0.00 0.00 74 1010.1
20260505183006 12 19 9.7 22.5 0.00 0.00 0.00 72 1010.0
20260505182506 12 351 9.7 19.3 0.00 0.00 0.00 72 1010.0